Home > Weather > Querétaro > Past weeks

Flag for Mexico Past Weather in Querétaro, Querétaro, Mexico — Yesterday and Last 2 Weeks

Now
57 °F

Mostly cloudy.


Feels Like: 56 °F
Forecast: 59 / 74 °F
Wind: 6 mph from North

Location: Queretaro - Qro.

Current Time: Jul 28, 2016 at 11:07:40 PM

Latest Report: Jul 28, 2016 at 9:45 PM


Visibility: 6 mi

Pressure: 30.30 "Hg (24.41 "Hg at 1817m altitude)

Humidity: 94%

Dew Point: 55 °F

Location of QuerétaroLocation

Past Weather in Querétaro — Graph

°F

Querétaro Temperature Yesterday

Maximum temperature yesterday: 81 °F (at 4:45 PM)
Minimum temperature yesterday: 54 °F (at 4:45 AM)
Average temperature yesterday: 65 °F

High & Low Weather Summary for the Past Weeks

 TemperatureHumidityPressure
High81 °F (Jul 24, 3:45 PM)100% (Jul 14, 7:45 AM)30.44 "Hg (Jul 14, 7:45 AM)
Low54 °F (Jul 16, 4:45 AM)30% (Jul 25, 3:50 PM)30.16 "Hg (Jul 26, 5:45 PM)
Average65 °F73%30.33 "Hg
* Reported Jul 13 9:45 PM — Jul 28 9:45 PM, Querétaro, Weather by CustomWeather, © 2016

Note: Actual official high and low records may vary slightly from our data, if they occured in-between our weather recording intervals... More about our weather records

Advertising

Querétaro Weather History for the Previous 24 Hours

Scroll right to see more
 ConditionsComfort  
Time TempWeatherWind HumidityBarometerVisibility
9:45 PM
Thu, Jul 28
57 °FMostly cloudy.6 mph94%30.30 "Hg6 mi
8:45 PM57 °FLight rain. Mostly cloudy.12 mph94%30.29 "Hg5 mi
5:45 PM61 °FRain. Mostly cloudy.No wind88%30.25 "Hg2 mi
4:45 PM73 °FRain. Partly sunny.12 mph61%30.19 "Hg7 mi
3:45 PM79 °FBroken clouds.7 mph48%30.21 "Hg7 mi
2:45 PM77 °FBroken clouds.6 mph51%30.25 "Hg7 mi
11:50 AM70 °FBroken clouds.No wind60%30.33 "Hg6 mi
10:50 AM68 °FBroken clouds.5 mph69%30.33 "Hg6 mi
9:45 AM64 °FBroken clouds.No wind78%30.34 "Hg5 mi
8:45 AM61 °FPartly sunny.6 mph94%30.34 "Hg5 mi
7:45 AM57 °FPartly cloudy.6 mph100%30.32 "Hg5 mi
6:45 AM57 °FPartly cloudy.5 mph94%30.30 "Hg6 mi
5:45 AM59 °FPartly cloudy.No wind94%30.29 "Hg6 mi
4:45 AM59 °FPartly cloudy.No wind94%30.30 "Hg6 mi
3:45 AM59 °FPartly cloudy.No wind94%30.31 "Hg6 mi
2:45 AM59 °FPartly cloudy.5 mph94%30.32 "Hg6 mi
1:45 AM59 °FPartly cloudy.5 mph94%30.33 "Hg6 mi
12:45 AM61 °FPartly cloudy.No wind88%30.33 "Hg6 mi
11:45 PM
Wed, Jul 27
63 °FPartly cloudy.No wind83%30.32 "Hg6 mi
Weather by CustomWeather, © 2016

See weather overviewHow to use our weather pages